Regional Weather Roundup
Issued by NWS

Home | Current Version | Previous Version | Graphics & Text | Print | Product List | Glossary On
Versions: 1 2 3 4 5 6 7 8 9 10 11 12 13 14 15 16 17 18 19 20 21 22 23 24 25 26 27 28 29 30 31 32 33 34 35 36 37 38 39 40 41 42 43 44 45 46 47 48 49 50
000
ASUS43 KLSX 172207
RWRMO

WEATHER SUMMARY FOR MISSOURI
NATIONAL WEATHER SERVICE SPRINGFIELD MO
400 PM CST SUN DEC 17 2017

NOTE: "FAIR" INDICATES FEW OR NO CLOUDS BELOW 12,000 FEET WITH NO
       SIGNIFICANT WEATHER AND/OR OBSTRUCTIONS TO VISIBILITY.
       CURRENT SKY AND/OR WEATHER CONDITIONS ARE NOT AVAILABLE FOR
       CHILLICOTHE AND FARMINGTON.

MOZ001>031-035>038-043-044-053-054-172300-
...NORTHERN AND WESTERN MISSOURI...

CITY           SKY/WX    TMP DP  RH WIND       PRES   REMARKS
KANSAS CTY INT CLOUDY    47  43  86 S8        29.98S
KANSAS C DTWN  CLOUDY    49  43  80 SW6       29.99R
LEE`S SUMMIT   CLOUDY    47  44  90 S10       30.00R
ST JOSEPH      CLOUDY    46  45  96 CALM      29.98S
CHILLICOTHE      N/A     45  44  97 W3        30.00R
KIRKSVILLE     CLOUDY    44  32  62 SW6       29.97S HAZE

$$
MOZ066>068-077>081-088>096-101>105-172300-
...SOUTHWEST MISSOURI...

CITY           SKY/WX    TMP DP  RH WIND       PRES   REMARKS
SPRINGFIELD    CLOUDY    46  45  96 W5        30.02R FOG
JOPLIN         CLOUDY    46  44  93 W7        30.04R
BRANSON        FOG       45  45 100 CALM      30.04R VSB 3/4

$$
MOZ032>034-039>042-045>050-055>058-069>072-172300-
...CENTRAL MISSOURI...

CITY           SKY/WX    TMP DP  RH WIND       PRES   REMARKS
COLUMBIA       CLOUDY    45  44  97 S8        30.01R FOG
JEFFERSON CITY CLOUDY    47  43  86 S3        30.03R
ROLLA          CLOUDY    47  43  86 SW7       30.02R
SEDALIA        CLOUDY    46  45  96 SW9       30.03R
WHITEMAN AFB   CLOUDY    45  43  92 SW9       29.97R
WARRENSBURG    CLOUDY    45  43  93 S7        30.01R FOG
OSAGE BEACH    CLOUDY    46  44  93 SW6       30.03S

$$
MOZ051-052-059>065-172300-
...EAST CENTRAL MISSOURI...

CITY           SKY/WX    TMP DP  RH WIND       PRES   REMARKS
ST LOUIS INTL  CLOUDY    54  40  59 SW9       30.01R
SPIRIT OF STL  CLOUDY    53  42  66 SW6       30.01R
ST CHARLES     CLOUDY    54  37  52 S9        30.00S

$$
MOZ072>076-082>087-097>100-106>115-172300-
...SOUTH CENTRAL AND SOUTHEAST MISSOURI...

CITY           SKY/WX    TMP DP  RH WIND       PRES   REMARKS
CAPE GIRARDEAU CLOUDY    46  42  86 S7        30.08R
FARMINGTON     CLOUDY    45  42  89 S7        30.04R
POPLAR BLUFF   CLOUDY    47  44  90 S5        30.08R
WEST PLAINS    CLOUDY    46  44  93 S3        30.05R

$$



USA.gov is the U.S. government's official web portal to all federal, state and local government web resources and services.